Location: Unspecified
(0.0000°N, 0.0000°E)
Time: 09:49:12
(UTC+00:00)

N. Korean satellite - Visible Passes

Search period start: 16 November 2018 00:00
Search period end: 26 November 2018 00:00
Orbit: 457 x 511 km, 97.2° (Epoch: 15 November)

Date Brightness Start Highest point End Pass type
(mag) Time Alt. Az. Time Alt. Az. Time Alt. Az.
16 Nov 9.8 05:17:24 10° ENE 05:19:38 16° ESE 05:21:53 10° SE visible
16 Nov 9.8 18:38:06 10° SSW 18:40:47 19° WSW 18:43:25 10° NW visible
17 Nov 7.9 18:12:47 10° S 18:16:22 46° WSW 18:19:53 10° NNW visible
20 Nov 10.0 05:13:09 10° ENE 05:15:04 14° ESE 05:17:00 10° SE visible
20 Nov 9.5 18:33:21 10° SSW 18:36:14 22° WSW 18:39:05 10° NW visible
21 Nov 7.5 18:08:11 10° S 18:11:49 55° W 18:15:23 10° NNW visible
23 Nov 10.5 18:55:30 10° WSW 18:56:04 10° WSW 18:56:38 10° W visible
24 Nov 10.2 05:08:59 10° ENE 05:10:28 12° ESE 05:11:57 10° SE visible
24 Nov 9.2 18:28:36 10° SSW 18:31:39 25° WSW 18:34:39 10° NW visible
